Weather History for Mullan Pass, ID

Change the Weather History Date:

Tuesday, September 25, 2012

  Actual Average (K3TH) Record (K3TH)
Temperature  
Mean Temperature 54 °F -  
Max Temperature 61 °F 68 °F 90 °F (2001)
Min Temperature 48 °F 43 °F 32 °F (1996)
Degree Days  
Heating Degree Days 10    
Growing Degree Days 4 (Base 50)    
Moisture  
Dew Point 41 °F    
Average Humidity 67    
Maximum Humidity 80    
Minimum Humidity 48    
Precipitation  
Precipitation 0.00 in - - ()
Sea Level Pressure  
Sea Level Pressure 29.89 in    
Wind  
Wind Speed 4 mph (NW)    
Max Wind Speed 6 mph    
Max Gust Speed -    
Visibility 10 miles    
Events      
Averages and records for this station are not official NWS values.
T = Trace of Precipitation, MM = Missing Value Source: NWS Daily Summary

Daily Weather History Graph

Daily Weather History Graph

Search for Another Location

Airport:

Trip Planner

Search our weather history database for the weather conditions in past years. The results will help you decide how hot, cold, wet, or windy it might be!

Date:

Astronomy

Sep. 25, 2012 Rise Set
Actual Time 6:34 AM PDT 6:33 PM PDT
Civil Twilight 6:03 AM PDT 7:03 PM PDT
Nautical Twilight 5:27 AM PDT 7:39 PM PDT
Astronomical Twilight 4:50 AM PDT 8:16 PM PDT
Moon 4:14 PM PDT (9/25) 1:44 AM PDT (9/25)
Length of Visible Light 13h 00m
Length of Day
11h 58m
Waxing Gibbous, 81% of the Moon is Illuminated
Sep 25
Waxing Gibbous
Sep 29
Full
Oct 8
Last Quarter
Oct 15
New
Oct 21
First Quarter

Hourly Weather History & Observations

Time (PDT) Temp. Dew Point Humidity Pressure Visibility Wind Dir Wind Speed Gust Speed Precip Events Conditions
12:53 AM 48.9 °F 39.9 °F 71% 29.88 in 10.0 mi WNW 5.8 mph - N/A   Mostly Cloudy
1:53 AM 51.1 °F 39.9 °F 66% 29.87 in 10.0 mi West 3.5 mph - N/A   Overcast
2:53 AM 48.0 °F 39.9 °F 74% 29.87 in 10.0 mi WNW 4.6 mph - N/A   Clear
3:53 AM 48.0 °F 39.9 °F 74% 29.86 in 10.0 mi WNW 5.8 mph - N/A   Clear
4:53 AM 48.9 °F 39.9 °F 71% 29.86 in 10.0 mi WNW 4.6 mph - N/A   Clear
7:53 AM 50.0 °F 39.9 °F 68% 29.89 in 10.0 mi Variable 3.5 mph - N/A   Clear
8:53 AM 52.0 °F 39.9 °F 63% 29.89 in 10.0 mi Calm Calm - N/A   Clear
9:53 AM 53.1 °F 39.9 °F 61% 29.89 in 10.0 mi Calm Calm - N/A   Clear
10:53 AM 54.0 °F 41.0 °F 62% 29.90 in 10.0 mi Variable 4.6 mph - N/A   Clear
11:53 AM 55.9 °F 42.1 °F 60% 29.89 in 10.0 mi NNW 4.6 mph - N/A   Clear
12:53 PM 57.0 °F 41.0 °F 55% 29.89 in 9.0 mi NW 5.8 mph - N/A   Partly Cloudy
1:53 PM 59.0 °F 42.1 °F 53% 29.87 in 8.0 mi Variable 4.6 mph - N/A   Partly Cloudy
2:53 PM 60.1 °F 41.0 °F 49% 29.88 in 9.0 mi NW 4.6 mph - N/A   Clear
3:53 PM 61.0 °F 41.0 °F 48% 29.86 in 9.0 mi Variable 3.5 mph - N/A   Clear
4:53 PM 57.9 °F 42.1 °F 56% 29.88 in 9.0 mi Calm Calm - N/A   Clear
5:53 PM 53.1 °F 43.0 °F 69% 29.90 in 9.0 mi WNW 4.6 mph - N/A   Clear
6:53 PM 50.0 °F 43.0 °F 77% 29.91 in 10.0 mi NW 5.8 mph - N/A   Clear
7:53 PM 48.9 °F 42.1 °F 77% 29.92 in 10.0 mi NW 5.8 mph - N/A   Clear
8:53 PM 48.9 °F 42.1 °F 77% 29.92 in 10.0 mi NW 5.8 mph - N/A   Clear
9:53 PM 48.9 °F 42.1 °F 77% 29.93 in 9.0 mi WNW 5.8 mph - N/A   Clear
10:53 PM 48.0 °F 42.1 °F 80% 29.92 in 9.0 mi WNW 4.6 mph - N/A   Clear
11:53 PM 48.0 °F 41.0 °F 77% 29.92 in 9.0 mi WNW 5.8 mph - N/A   Clear